| time (UTC) | temp C | wind direction | speed KPH | gust KPH | rain 1hr cm | rain 24hr cm | rain mn cm | humidity % | barometer mb |
| 20260502235342 | 14 | 267 | 0.0 | 9.7 | 0.00 | 0.00 | 0.00 | 53 | 1013.5 |
| 20260502234840 | 15 | 134 | 0.0 | 9.7 | 0.00 | 0.00 | 0.00 | 51 | 1013.5 |
| 20260502234339 | 15 | 218 | 1.6 | 11.3 | 0.00 | 0.00 | 0.00 | 51 | 1013.5 |
| 20260502233838 | 15 | 24 | 4.8 | 11.3 | 0.00 | 0.00 | 0.00 | 48 | 1013.5 |
| 20260502233338 | 15 | 42 | 1.6 | 6.4 | 0.00 | 0.00 | 0.00 | 48 | 1013.5 |
| 20260502232837 | 15 | 69 | 1.6 | 3.2 | 0.00 | 0.00 | 0.00 | 50 | 1013.2 |
| 20260502232336 | 15 | 80 | 1.6 | 3.2 | 0.00 | 0.00 | 0.00 | 50 | 1013.2 |
| 20260502231835 | 15 | 37 | 1.6 | 8.0 | 0.00 | 0.00 | 0.00 | 51 | 1013.2 |
| 20260502231334 | 15 | 39 | 1.6 | 8.0 | 0.00 | 0.00 | 0.00 | 45 | 1013.2 |
| 20260502230833 | 15 | 24 | 3.2 | 9.7 | 0.00 | 0.00 | 0.00 | 46 | 1013.2 |
| 20260502230331 | 15 | 38 | 3.2 | 9.7 | 0.00 | 0.00 | 0.00 | 45 | 1013.2 |
| 20260502225830 | 15 | 66 | 1.6 | 8.0 | 0.00 | 0.00 | 0.00 | 46 | 1013.2 |
| 20260502225258 | 16 | 61 | 3.2 | 14.5 | 0.00 | 0.00 | 0.00 | 45 | 1013.2 |
| 20260502224708 | 16 | 44 | 3.2 | 16.1 | 0.00 | 0.00 | 0.00 | 46 | 1013.2 |
| 20260502224135 | 16 | 32 | 4.8 | 16.1 | 0.00 | 0.00 | 0.00 | 44 | 1013.2 |
| 20260502223634 | 16 | 64 | 3.2 | 9.7 | 0.00 | 0.00 | 0.00 | 46 | 1013.5 |
| 20260502223133 | 16 | 46 | 4.8 | 9.7 | 0.00 | 0.00 | 0.00 | 44 | 1013.5 |
| 20260502222631 | 16 | 336 | 1.6 | 14.5 | 0.00 | 0.00 | 0.00 | 44 | 1013.2 |
| 20260502222131 | 16 | 71 | 3.2 | 14.5 | 0.00 | 0.00 | 0.00 | 45 | 1013.2 |
| 20260502221629 | 16 | 51 | 3.2 | 16.1 | 0.00 | 0.00 | 0.00 | 43 | 1013.2 |
| 20260502221128 | 17 | 13 | 3.2 | 16.1 | 0.00 | 0.00 | 0.00 | 44 | 1013.2 |
| 20260502220628 | 17 | 347 | 3.2 | 14.5 | 0.00 | 0.00 | 0.00 | 44 | 1013.2 |
| 20260502220024 | 16 | 55 | 3.2 | 9.7 | 0.00 | 0.00 | 0.00 | 45 | 1013.2 |
| 20260502215451 | 17 | 16 | 1.6 | 11.3 | 0.00 | 0.00 | 0.00 | 44 | 1012.9 |
| 20260502214950 | 17 | 94 | 1.6 | 11.3 | 0.00 | 0.00 | 0.00 | 42 | 1012.9 |
| 20260502214449 | 17 | 94 | 1.6 | 12.9 | 0.00 | 0.00 | 0.00 | 41 | 1012.9 |
| 20260502213948 | 17 | 138 | 3.2 | 12.9 | 0.00 | 0.00 | 0.00 | 41 | 1012.9 |
| 20260502213447 | 18 | 276 | 1.6 | 8.0 | 0.00 | 0.00 | 0.00 | 42 | 1012.9 |
| 20260502212843 | 17 | 245 | 1.6 | 9.7 | 0.00 | 0.00 | 0.00 | 44 | 1012.9 |
| 20260502212342 | 17 | 257 | 1.6 | 9.7 | 0.00 | 0.00 | 0.00 | 40 | 1012.9 |
| 20260502211840 | 17 | 314 | 1.6 | 9.7 | 0.00 | 0.00 | 0.00 | 38 | 1012.9 |
| 20260502211308 | 17 | 39 | 3.2 | 9.7 | 0.00 | 0.00 | 0.00 | 40 | 1012.9 |
| 20260502210807 | 17 | 50 | 3.2 | 9.7 | 0.00 | 0.00 | 0.00 | 40 | 1012.9 |
| 20260502210203 | 17 | 104 | 3.2 | 12.9 | 0.00 | 0.00 | 0.00 | 41 | 1012.9 |
| 20260502205702 | 17 | 38 | 3.2 | 12.9 | 0.00 | 0.00 | 0.00 | 42 | 1012.9 |
| 20260502205130 | 17 | 50 | 4.8 | 14.5 | 0.00 | 0.00 | 0.00 | 41 | 1012.9 |
| 20260502204630 | 17 | 50 | 6.4 | 14.5 | 0.00 | 0.00 | 0.00 | 40 | 1012.9 |
| 20260502204129 | 17 | 39 | 4.8 | 12.9 | 0.00 | 0.00 | 0.00 | 40 | 1012.9 |
| 20260502203628 | 18 | 69 | 3.2 | 11.3 | 0.00 | 0.00 | 0.00 | 37 | 1012.9 |
| 20260502203055 | 18 | 33 | 6.4 | 11.3 | 0.00 | 0.00 | 0.00 | 36 | 1012.9 |
| 20260502202554 | 18 | 239 | 1.6 | 11.3 | 0.00 | 0.00 | 0.00 | 40 | 1012.9 |
| 20260502202021 | 18 | 45 | 6.4 | 11.3 | 0.00 | 0.00 | 0.00 | 38 | 1012.9 |
| 20260502201517 | 18 | 41 | 3.2 | 11.3 | 0.00 | 0.00 | 0.00 | 39 | 1012.9 |
| 20260502201016 | 18 | 265 | 1.6 | 12.9 | 0.00 | 0.00 | 0.00 | 40 | 1012.9 |
| 20260502200515 | 18 | 69 | 6.4 | 12.9 | 0.00 | 0.00 | 0.00 | 39 | 1012.9 |
| 20260502200014 | 17 | 237 | 1.6 | 8.0 | 0.00 | 0.00 | 0.00 | 39 | 1012.9 |
| 20260502195513 | 17 | 70 | 1.6 | 11.3 | 0.00 | 0.00 | 0.00 | 38 | 1013.2 |
| 20260502195011 | 18 | 27 | 3.2 | 11.3 | 0.00 | 0.00 | 0.00 | 37 | 1013.2 |
| 20260502194511 | 18 | 34 | 3.2 | 11.3 | 0.00 | 0.00 | 0.00 | 38 | 1013.2 |
| 20260502193938 | 18 | 107 | 1.6 | 11.3 | 0.00 | 0.00 | 0.00 | 36 | 1013.2 |
| 20260502193435 | 17 | 63 | 3.2 | 12.9 | 0.00 | 0.00 | 0.00 | 37 | 1013.2 |
| 20260502192934 | 17 | 54 | 4.8 | 12.9 | 0.00 | 0.00 | 0.00 | 39 | 1013.2 |
| 20260502192433 | 17 | 58 | 3.2 | 8.0 | 0.00 | 0.00 | 0.00 | 41 | 1013.2 |
| 20260502191901 | 17 | 285 | 1.6 | 11.3 | 0.00 | 0.00 | 0.00 | 41 | 1013.2 |
| 20260502191400 | 17 | 37 | 1.6 | 16.1 | 0.00 | 0.00 | 0.00 | 40 | 1013.2 |
| 20260502190859 | 18 | 49 | 3.2 | 16.1 | 0.00 | 0.00 | 0.00 | 35 | 1013.2 |
| 20260502190358 | 18 | 41 | 3.2 | 17.7 | 0.00 | 0.00 | 0.00 | 35 | 1013.2 |
| 20260502185857 | 18 | 56 | 4.8 | 17.7 | 0.00 | 0.00 | 0.00 | 36 | 1013.2 |
| 20260502185356 | 18 | 52 | 4.8 | 16.1 | 0.00 | 0.00 | 0.00 | 36 | 1013.2 |
| 20260502184855 | 17 | 101 | 1.6 | 20.9 | 0.00 | 0.00 | 0.00 | 38 | 1013.2 |
| 20260502184354 | 17 | 40 | 3.2 | 20.9 | 0.00 | 0.00 | 0.00 | 38 | 1013.2 |
| 20260502183822 | 17 | 118 | 3.2 | 22.5 | 0.00 | 0.00 | 0.00 | 34 | 1013.5 |
| 20260502183321 | 17 | 33 | 6.4 | 22.5 | 0.00 | 0.00 | 0.00 | 38 | 1013.5 |
| 20260502182819 | 17 | 51 | 1.6 | 16.1 | 0.00 | 0.00 | 0.00 | 38 | 1013.5 |
| 20260502182318 | 17 | 55 | 4.8 | 16.1 | 0.00 | 0.00 | 0.00 | 39 | 1013.5 |
| 20260502181817 | 17 | 45 | 8.0 | 16.1 | 0.00 | 0.00 | 0.00 | 35 | 1013.5 |
| 20260502181316 | 17 | 65 | 4.8 | 12.9 | 0.00 | 0.00 | 0.00 | 36 | 1013.9 |
| 20260502180743 | 17 | 264 | 3.2 | 14.5 | 0.00 | 0.00 | 0.00 | 40 | 1013.5 |
| 20260502180242 | 17 | 68 | 4.8 | 16.1 | 0.00 | 0.00 | 0.00 | 39 | 1013.9 |
| 20260502170125 | 16 | 48 | 8.0 | 24.1 | 0.00 | 0.00 | 0.00 | 36 | 1014.2 |
| 20260502164121 | 16 | 51 | 4.8 | 16.1 | 0.00 | 0.00 | 0.00 | 41 | 1014.2 |
| 20260502163619 | 16 | 46 | 4.8 | 16.1 | 0.00 | 0.00 | 0.00 | 44 | 1014.6 |
| 20260502163118 | 16 | 45 | 6.4 | 16.1 | 0.00 | 0.00 | 0.00 | 41 | 1014.6 |
| 20260502162617 | 16 | 42 | 6.4 | 12.9 | 0.00 | 0.00 | 0.00 | 44 | 1014.6 |
| 20260502162044 | 16 | 40 | 4.8 | 14.5 | 0.00 | 0.00 | 0.00 | 42 | 1014.6 |
| 20260502161543 | 16 | 50 | 4.8 | 16.1 | 0.00 | 0.00 | 0.00 | 43 | 1014.6 |
| 20260502161042 | 16 | 50 | 4.8 | 16.1 | 0.00 | 0.00 | 0.00 | 45 | 1014.6 |
| 20260502160541 | 16 | 316 | 1.6 | 11.3 | 0.00 | 0.00 | 0.00 | 48 | 1014.6 |
| 20260502151722 | 15 | 48 | 4.8 | 16.1 | 0.00 | 0.00 | 0.00 | 47 | 1014.6 |
| 20260502151220 | 15 | 34 | 4.8 | 16.1 | 0.00 | 0.00 | 0.00 | 48 | 1014.6 |
| 20260502150719 | 15 | 38 | 8.0 | 16.1 | 0.00 | 0.00 | 0.00 | 48 | 1014.6 |
| 20260502150218 | 14 | 53 | 3.2 | 14.5 | 0.00 | 0.00 | 0.00 | 48 | 1014.6 |
| 20260502130327 | 11 | 28 | 6.4 | 14.5 | 0.00 | 0.00 | 0.00 | 63 | 1014.6 |
| 20260502123321 | 10 | 16 | 1.6 | 3.2 | 0.00 | 0.00 | 0.00 | 75 | 1014.2 |
| 20260502122820 | 10 | 73 | 1.6 | 3.2 | 0.00 | 0.00 | 0.00 | 74 | 1014.2 |
| 20260502122319 | 10 | 32 | 1.6 | 3.2 | 0.00 | 0.00 | 0.00 | 74 | 1014.2 |
| 20260502121815 | 10 | 75 | 0.0 | 1.6 | 0.00 | 0.00 | 0.00 | 75 | 1014.2 |
| 20260502121313 | 9 | 75 | 0.0 | 3.2 | 0.00 | 0.00 | 0.00 | 76 | 1014.2 |
| 20260502120811 | 9 | 67 | 0.0 | 3.2 | 0.00 | 0.00 | 0.00 | 77 | 1014.2 |
| 20260502120239 | 9 | 267 | 1.6 | 1.6 | 0.00 | 0.00 | 0.00 | 80 | 1014.2 |
| 20260502115738 | 8 | 193 | 0.0 | 0.0 | 0.00 | 0.00 | 0.00 | 81 | 1013.9 |
| 20260502115236 | 8 | 194 | 0.0 | 0.0 | 0.00 | 0.00 | 0.00 | 80 | 1013.9 |
| 20260502114734 | 8 | 194 | 0.0 | 0.0 | 0.00 | 0.00 | 0.00 | 82 | 1013.9 |
| 20260502114234 | 8 | 194 | 0.0 | 1.6 | 0.00 | 0.00 | 0.00 | 83 | 1013.9 |
| 20260502113722 | 8 | 194 | 0.0 | 1.6 | 0.00 | 0.00 | 0.00 | 83 | 1013.5 |
| 20260502113221 | 8 | 194 | 0.0 | 1.6 | 0.00 | 0.00 | 0.00 | 83 | 1013.9 |
| 20260502112720 | 8 | 194 | 0.0 | 1.6 | 0.00 | 0.00 | 0.00 | 82 | 1013.5 |
| 20260502112218 | 8 | 194 | 1.6 | 1.6 | 0.00 | 0.00 | 0.00 | 82 | 1013.5 |
| 20260502111718 | 8 | 104 | 0.0 | 0.0 | 0.00 | 0.00 | 0.00 | 81 | 1013.5 |
| 20260502111215 | 8 | 105 | 0.0 | 0.0 | 0.00 | 0.00 | 0.00 | 80 | 1013.5 |
| 20260502110642 | 8 | 105 | 0.0 | 0.0 | 0.00 | 0.00 | 0.00 | 81 | 1013.2 |
| 20260502110140 | 8 | 105 | 0.0 | 0.0 | 0.00 | 0.00 | 0.00 | 80 | 1013.2 |
| 20260502105639 | 8 | 105 | 0.0 | 0.0 | 0.00 | 0.00 | 0.00 | 80 | 1013.2 |
| 20260502105137 | 8 | 105 | 0.0 | 0.0 | 0.00 | 0.00 | 0.00 | 79 | 1013.2 |
| 20260502104605 | 8 | 104 | 0.0 | 0.0 | 0.00 | 0.00 | 0.00 | 78 | 1013.2 |
| 20260502104104 | 8 | 104 | 0.0 | 0.0 | 0.00 | 0.00 | 0.00 | 78 | 1013.2 |
| 20260502103603 | 8 | 105 | 0.0 | 0.0 | 0.00 | 0.00 | 0.00 | 78 | 1013.2 |
| 20260502103101 | 8 | 105 | 0.0 | 0.0 | 0.00 | 0.00 | 0.00 | 77 | 1013.2 |
| 20260502102600 | 8 | 105 | 0.0 | 0.0 | 0.00 | 0.00 | 0.00 | 77 | 1013.5 |
| 20260502102059 | 8 | 105 | 0.0 | 0.0 | 0.00 | 0.00 | 0.00 | 76 | 1013.2 |
| 20260502101558 | 8 | 105 | 0.0 | 0.0 | 0.00 | 0.00 | 0.00 | 76 | 1013.2 |
| 20260502101056 | 9 | 105 | 0.0 | 0.0 | 0.00 | 0.00 | 0.00 | 75 | 1013.2 |
| 20260502100555 | 9 | 104 | 0.0 | 0.0 | 0.00 | 0.00 | 0.00 | 75 | 1013.2 |
| 20260502091438 | 10 | 115 | 0.0 | 1.6 | 0.00 | 0.00 | 0.00 | 72 | 1013.2 |
| 20260502090936 | 10 | 115 | 1.6 | 1.6 | 0.00 | 0.00 | 0.00 | 72 | 1013.2 |
| 20260502090403 | 10 | 115 | 1.6 | 1.6 | 0.00 | 0.00 | 0.00 | 72 | 1013.2 |
| 20260502071231 | 11 | 30 | 3.2 | 6.4 | 0.00 | 0.00 | 0.00 | 62 | 1014.2 |
| 20260502070729 | 11 | 55 | 1.6 | 4.8 | 0.00 | 0.00 | 0.00 | 62 | 1014.2 |
| 20260502070228 | 11 | 8 | 3.2 | 4.8 | 0.00 | 0.00 | 0.00 | 62 | 1014.2 |
| 20260502065727 | 11 | 48 | 1.6 | 4.8 | 0.00 | 0.00 | 0.00 | 61 | 1013.9 |
| 20260502065225 | 11 | 58 | 1.6 | 4.8 | 0.00 | 0.00 | 0.00 | 62 | 1013.9 |
| 20260502064724 | 11 | 12 | 1.6 | 4.8 | 0.00 | 0.00 | 0.00 | 60 | 1013.9 |
| 20260502064223 | 11 | 7 | 1.6 | 4.8 | 0.00 | 0.00 | 0.00 | 59 | 1013.9 |
| 20260502063721 | 11 | 61 | 1.6 | 6.4 | 0.00 | 0.00 | 0.00 | 59 | 1013.9 |
| 20260502063220 | 12 | 108 | 1.6 | 6.4 | 0.00 | 0.00 | 0.00 | 60 | 1013.9 |
| 20260502062717 | 12 | 66 | 0.0 | 8.0 | 0.00 | 0.00 | 0.00 | 60 | 1013.9 |
| 20260502062216 | 12 | 43 | 3.2 | 8.0 | 0.00 | 0.00 | 0.00 | 58 | 1013.9 |
| 20260502061715 | 12 | 66 | 1.6 | 9.7 | 0.00 | 0.00 | 0.00 | 58 | 1013.9 |
| 20260502061214 | 12 | 25 | 1.6 | 9.7 | 0.00 | 0.00 | 0.00 | 56 | 1013.9 |
| 20260502060713 | 12 | 47 | 3.2 | 11.3 | 0.00 | 0.00 | 0.00 | 56 | 1013.9 |
| 20260502060212 | 12 | 45 | 3.2 | 11.3 | 0.00 | 0.00 | 0.00 | 56 | 1013.9 |
| 20260502055638 | 12 | 41 | 6.4 | 11.3 | 0.00 | 0.00 | 0.00 | 55 | 1013.9 |
| 20260502055137 | 12 | 42 | 4.8 | 9.7 | 0.00 | 0.00 | 0.00 | 55 | 1013.9 |
| 20260502054636 | 12 | 64 | 3.2 | 9.7 | 0.00 | 0.00 | 0.00 | 55 | 1013.9 |
| 20260502054135 | 12 | 326 | 1.6 | 8.0 | 0.00 | 0.00 | 0.00 | 55 | 1013.9 |
| 20260502053632 | 12 | 43 | 3.2 | 11.3 | 0.00 | 0.00 | 0.00 | 54 | 1013.5 |
| 20260502053131 | 12 | 39 | 3.2 | 12.9 | 0.00 | 0.00 | 0.00 | 54 | 1013.5 |
| 20260502052630 | 12 | 0 | 1.6 | 12.9 | 0.00 | 0.00 | 0.00 | 54 | 1013.5 |
| 20260502052057 | 12 | 259 | 3.2 | 14.5 | 0.00 | 0.00 | 0.00 | 53 | 1013.5 |
| 20260502051555 | 12 | 44 | 4.8 | 14.5 | 0.00 | 0.00 | 0.00 | 53 | 1013.5 |
| 20260502051023 | 12 | 49 | 3.2 | 6.4 | 0.00 | 0.00 | 0.00 | 53 | 1013.5 |
| 20260502050521 | 13 | 54 | 3.2 | 6.4 | 0.00 | 0.00 | 0.00 | 54 | 1013.5 |
| 20260502050021 | 13 | 21 | 1.6 | 9.7 | 0.00 | 0.00 | 0.00 | 52 | 1013.5 |
| 20260502045520 | 13 | 44 | 3.2 | 9.7 | 0.00 | 0.00 | 0.00 | 51 | 1013.5 |
| 20260502045019 | 13 | 54 | 1.6 | 14.5 | 0.00 | 0.00 | 0.00 | 51 | 1013.5 |
| 20260502044518 | 13 | 43 | 3.2 | 14.5 | 0.00 | 0.00 | 0.00 | 51 | 1013.5 |
| 20260502044017 | 13 | 35 | 3.2 | 16.1 | 0.00 | 0.00 | 0.00 | 50 | 1013.5 |
| 20260502043412 | 13 | 59 | 8.0 | 16.1 | 0.00 | 0.00 | 0.00 | 49 | 1013.5 |
| 20260502042911 | 13 | 51 | 3.2 | 17.7 | 0.00 | 0.00 | 0.00 | 49 | 1013.5 |
| 20260502042410 | 13 | 41 | 8.0 | 17.7 | 0.00 | 0.00 | 0.00 | 50 | 1013.5 |
| 20260502041909 | 13 | 40 | 4.8 | 12.9 | 0.00 | 0.00 | 0.00 | 51 | 1013.5 |
| 20260502041408 | 13 | 74 | 1.6 | 12.9 | 0.00 | 0.00 | 0.00 | 51 | 1013.5 |
| 20260502040907 | 13 | 5 | 3.2 | 12.9 | 0.00 | 0.00 | 0.00 | 50 | 1013.5 |
| 20260502040406 | 13 | 92 | 1.6 | 14.5 | 0.00 | 0.00 | 0.00 | 51 | 1013.9 |
| 20260502035905 | 13 | 52 | 6.4 | 14.5 | 0.00 | 0.00 | 0.00 | 48 | 1013.9 |
| 20260502035333 | 13 | 39 | 3.2 | 8.0 | 0.00 | 0.00 | 0.00 | 52 | 1013.5 |
| 20260502034832 | 14 | 43 | 4.8 | 12.9 | 0.00 | 0.00 | 0.00 | 49 | 1013.5 |
| 20260502034331 | 14 | 65 | 3.2 | 16.1 | 0.00 | 0.00 | 0.00 | 50 | 1013.5 |
| 20260502033830 | 14 | 35 | 3.2 | 16.1 | 0.00 | 0.00 | 0.00 | 51 | 1013.5 |
| 20260502033257 | 14 | 50 | 4.8 | 17.7 | 0.00 | 0.00 | 0.00 | 49 | 1013.5 |
| 20260502032723 | 13 | 57 | 6.4 | 17.7 | 0.00 | 0.00 | 0.00 | 53 | 1013.5 |
| 20260502032222 | 14 | 57 | 1.6 | 14.5 | 0.00 | 0.00 | 0.00 | 53 | 1013.5 |
| 20260502031721 | 14 | 71 | 0.0 | 14.5 | 0.00 | 0.00 | 0.00 | 54 | 1013.5 |
| 20260502031219 | 14 | 86 | 3.2 | 16.1 | 0.00 | 0.00 | 0.00 | 52 | 1013.5 |
| 20260502030647 | 14 | 44 | 4.8 | 16.1 | 0.00 | 0.00 | 0.00 | 55 | 1013.5 |
| 20260502030146 | 14 | 26 | 4.8 | 11.3 | 0.00 | 0.00 | 0.00 | 58 | 1013.9 |
| 20260502025645 | 14 | 60 | 1.6 | 4.8 | 0.00 | 0.00 | 0.00 | 56 | 1013.9 |
| 20260502025143 | 14 | 51 | 1.6 | 4.8 | 0.00 | 0.00 | 0.00 | 59 | 1013.5 |
| 20260502024642 | 14 | 35 | 3.2 | 4.8 | 0.00 | 0.00 | 0.00 | 59 | 1013.5 |
| 20260502024141 | 14 | 260 | 1.6 | 8.0 | 0.00 | 0.00 | 0.00 | 61 | 1013.5 |
| 20260502023639 | 15 | 145 | 1.6 | 8.0 | 0.00 | 0.00 | 0.00 | 57 | 1013.5 |
| 20260502023138 | 15 | 118 | 0.0 | 14.5 | 0.00 | 0.00 | 0.00 | 59 | 1013.5 |
| 20260502022605 | 15 | 206 | 1.6 | 14.5 | 0.00 | 0.00 | 0.00 | 60 | 1013.5 |
| 20260502022104 | 15 | 51 | 1.6 | 16.1 | 0.00 | 0.00 | 0.00 | 60 | 1013.5 |
| 20260502021603 | 15 | 75 | 3.2 | 16.1 | 0.00 | 0.00 | 0.00 | 60 | 1013.5 |
| 20260502021102 | 15 | 132 | 0.0 | 6.4 | 0.00 | 0.00 | 0.00 | 63 | 1013.5 |
| 20260502020601 | 15 | 269 | 1.6 | 6.4 | 0.00 | 0.00 | 0.00 | 63 | 1013.5 |
| 20260502020100 | 15 | 88 | 1.6 | 6.4 | 0.00 | 0.00 | 0.00 | 62 | 1013.5 |
| 20260502015527 | 15 | 66 | 1.6 | 8.0 | 0.00 | 0.00 | 0.00 | 61 | 1013.2 |
| 20260502015026 | 16 | 65 | 1.6 | 11.3 | 0.00 | 0.00 | 0.00 | 60 | 1013.2 |
| 20260502014526 | 16 | 358 | 1.6 | 11.3 | 0.00 | 0.00 | 0.00 | 61 | 1013.2 |
| 20260502014024 | 16 | 33 | 6.4 | 11.3 | 0.00 | 0.00 | 0.00 | 60 | 1012.9 |
| 20260502013452 | 16 | 52 | 4.8 | 11.3 | 0.00 | 0.00 | 0.00 | 60 | 1012.9 |
| 20260502012951 | 16 | 40 | 4.8 | 11.3 | 0.00 | 0.00 | 0.00 | 60 | 1012.9 |
| 20260502012449 | 16 | 6 | 1.6 | 9.7 | 0.00 | 0.00 | 0.00 | 62 | 1012.5 |
| 20260502011917 | 16 | 53 | 3.2 | 9.7 | 0.00 | 0.00 | 0.00 | 62 | 1012.5 |
| 20260502011416 | 15 | 66 | 3.2 | 6.4 | 0.00 | 0.00 | 0.00 | 63 | 1012.5 |
| 20260502010915 | 16 | 73 | 1.6 | 1.6 | 0.00 | 0.00 | 0.00 | 63 | 1012.2 |
| 20260502010414 | 16 | 125 | 0.0 | 1.6 | 0.00 | 0.00 | 0.00 | 64 | 1012.2 |
| 20260502005913 | 16 | 126 | 0.0 | 1.6 | 0.00 | 0.00 | 0.00 | 61 | 1012.2 |
| 20260502005412 | 16 | 118 | 1.6 | 6.4 | 0.00 | 0.00 | 0.00 | 61 | 1012.2 |
| 20260502004910 | 16 | 95 | 1.6 | 6.4 | 0.00 | 0.00 | 0.00 | 61 | 1011.9 |
| 20260502004409 | 16 | 91 | 0.0 | 6.4 | 0.00 | 0.00 | 0.00 | 61 | 1011.9 |
| 20260502003907 | 16 | 324 | 3.2 | 6.4 | 0.00 | 0.00 | 0.00 | 61 | 1011.9 |
| 20260502003406 | 16 | 122 | 1.6 | 1.6 | 0.00 | 0.00 | 0.00 | 60 | 1011.5 |
| 20260502002833 | 16 | 122 | 0.0 | 1.6 | 0.00 | 0.00 | 0.00 | 59 | 1011.2 |
| 20260502002332 | 16 | 89 | 0.0 | 0.0 | 0.00 | 0.00 | 0.00 | 59 | 1011.2 |
| 20260502001830 | 16 | 89 | 0.0 | 1.6 | 0.00 | 0.00 | 0.00 | 59 | 1011.2 |
| 20260502001330 | 16 | 89 | 0.0 | 3.2 | 0.00 | 0.00 | 0.00 | 58 | 1011.2 |
| 20260502000826 | 17 | 89 | 0.0 | 3.2 | 0.00 | 0.00 | 0.00 | 59 | 1011.2 |
| 20260502000325 | 17 | 89 | 1.6 | 3.2 | 0.00 | 0.00 | 0.00 | 58 | 1011.2 |
| 20260501235824 | 17 | 89 | 0.0 | 3.2 | 0.00 | 0.00 | 0.00 | 57 | 1011.2 |